Zurück zum Katalog

THOR ALTAIR DEB

AktivPO
NORAD 1931·DEBRIS·🇺🇸 United States

Gestartet Sep 10, 1965 von Vandenberg Space Force Base

Loading…

Nächste Überflüge (nächste 24 Stunden)

TLE

AktuellSource: Space-Track

Epoche: Sep 14, 2026, 01:06 UTC

1 01931U 65072E   26257.04623117  .00000559  00000-0  15721-3 0  9998
2 01931  98.9989 297.5833 0235692 176.3244 183.9742 14.35274954205598

Verfolge THOR ALTAIR DEB in Echtzeit mit AllMySat

Download on the App Store